Regional Weather Roundup
Issued by NWS

Home | Current Version | Previous Version | Graphics & Text | Print | Product List | Glossary Off
Versions: 1 2 3 4 5 6 7 8 9 10 11 12 13 14 15 16 17 18 19 20 21 22 23 24 25 26 27 28 29 30 31 32 33 34 35 36 37 38 39 40 41 42 43 44 45 46 47 48 49 50

000
ASUS45 KSLC 200910
RWRUT

UTAH REGIONAL WEATHER ROUNDUP
NATIONAL WEATHER SERVICE SALT LAKE CITY UT
300 AM MDT FRI OCT 20 2017

UTZ001>011-023>025-201000-

NORTHERN UTAH

CITY           SKY/WX    TMP DP  RH WIND       PRES   REMARKS
BRIGHAM CITY   CLEAR     47  30  50 NW9       29.66F
HILL AFB       CLEAR     63  36  37 S17       29.68F
LOGAN          CLEAR     38  28  67 CALM      29.66F
OGDEN          CLEAR     63  38  39 S20G25    29.66F
SALT LAKE CITY MOCLDY    64  40  41 SE17      29.68F
TOOELE VALLEY  CLEAR     64  34  32 S14G23    29.66F
WENDOVER       PTCLDY    40  22  48 W7        29.66F
WEST JORDAN    CLEAR     59  40  48 SE14      29.71F

$$

UTZ011>015-024>027-201000-

CENTRAL/NORTHEAST UTAH

CITY           SKY/WX    TMP DP  RH WIND       PRES   REMARKS
PROVO AIRPORT  PTCLDY    55  40  56 E8        29.76F
MOAB/CANYONLAN CLOUDY    63  36  36 SE5       29.81F
DELTA          CLEAR     52  32  46 S12       29.76F
PRICE          CLEAR     52  22  30 E7        29.86F
RICHFIELD      CLEAR     46  34  61 CALM      29.85S
ROOSEVELT      PTCLDY    43  32  65 W5        29.85F
VERNAL         CLEAR     42  28  57 W5        29.83F

$$

UTZ013>016-019>022-027-201000-

SOUTHERN UTAH

CITY           SKY/WX    TMP DP  RH WIND       PRES   REMARKS
BRYCE CANYON   CLEAR     28  24  85 SW6       30.00F WCI  22
CEDAR CITY     CLEAR     48  29  47 SW5       29.86S
MILFORD        CLEAR     48  29  47 S8        29.79F
ST GEORGE      MOSUNNY   54  28  36 S3        29.78S
HANKSVILLE     CLEAR     52  34  50 CALM      29.83F
KANAB          CLEAR     41  28  60 NE5       29.94F
BLANDING         N/A     49  33  53 NE6       30.03F

$$

REGIONAL REPORTS     COLORADO/ARIZONA

CITY           SKY/WX    TMP DP  RH WIND       PRES   REMARKS
CRAIG, CO      PTCLDY    36  29  75 CALM      29.91F
GRAND JUNCTION MOCLDY    59  32  36 SE12      29.86F
RIFLE, CO      PTCLDY    46  31  55 CALM      29.92F
MONTROSE, CO   MOCLDY    50  31  48 SE9       29.96F
CORTEZ, CO     CLOUDY    49  35  58 E8        29.99F
COLORADO CITY    N/A     41  30  65 CALM      29.92S
PAGE, AZ       CLEAR     65  36  34 S8        29.84F
GRAND CANYON   CLEAR     34  25  69 CALM      30.02F
KINGMAN, AZ    CLEAR     57  32  38 S9        29.84F
FLAGSTAFF, AZ  CLEAR     36  28  73 CALM      30.06F

$$

REGIONAL REPORTS    NEVADA/IDAHO/WYOMING

CITY           SKY/WX    TMP DP  RH WIND       PRES   REMARKS
LAS VEGAS, NV  CLEAR     71  35  26 S13G23    29.71S
ELY, NY        CLEAR     48  22  35 S16       29.79F
ELKO, NV       PTCLDY    36  18  48 E8        29.64F WCI  30
POCATELLO, ID  CLEAR     63  32  31 S21G32    29.59F
BURLEY, ID     CLOUDY    53  21  28 S6        29.56F
FORT BRIDGER,  CLOUDY    48  33  55 SW7       29.86F
EVANSTON, WY   CLEAR     45  35  68 SW8       29.83F
ROCK SPRINGS,  CLEAR     47  25  42 S10       29.83F
KEMMERER, WY   PTCLDY    43  28  56 CALM      29.84F

$$



USA.gov is the U.S. government's official web portal to all federal, state and local government web resources and services.